RH
7 5 4 5 4 6 10 12 12 14 18 18 18 18 20 22 23 24 22 21 21 21 21 20 18 17 18 16 17 17 16 17 15 19 23 25 24 23 24 21 21 18 16 15 11 13 16 19 21 16 15 20 25 25 20 33 48 42 40 33 35 49 44 44 45 42 37 37 46 50 62 61 50 56 56 56 61 63 64 63 64 61 53 50 43 40 43 41
5 5 4 5 5 8 11 11 14 17 19 18 18 19 22 23 22 24 21 20 20 20 19 18 17 16 16 15 19 21 20 18 15 20 22 23 23 22 22 20 20 18 16 15 15 18 21 28 28 24 24 23 24 25 24 27 36 54 50 30 47 60 49 50 46 43 40 35 44 49 61 65 53 51 47 45 58 70 65 57 60 62 56 49 44 44 46 45
5 5 4 5 7 11 11 13 17 18 19 18 19 21 22 22 21 22 21 20 19 19 17 15 15 15 15 14 19 23 22 19 17 21 21 22 23 21 21 20 20 17 16 17 18 20 21 27 23 24 28 23 28 29 28 30 33 50 44 33 56 62 50 52 49 44 43 44 44 47 62 66 61 57 48 49 56 58 56 50 52 58 56 50 48 48 48 50
6 6 6 8 10 12 13 17 19 18 18 18 21 22 22 22 20 21 20 19 19 18 16 16 16 16 17 17 19 21 21 21 19 21 21 22 22 20 20 19 20 17 17 18 18 20 20 23 21 28 27 24 44 39 26 34 31 34 39 42 53 52 42 40 46 49 51 53 46 50 59 51 55 62 53 52 53 48 46 46 47 48 46 44 47 51 55 60
8 8 9 11 12 14 17 19 18 18 19 20 21 21 21 21 19 20 20 18 18 18 17 18 19 21 21 20 21 19 22 23 19 20 21 22 21 20 20 19 19 18 19 18 18 18 16 20 24 39 36 24 44 39 26 43 36 31 46 51 53 49 35 33 48 53 52 55 51 52 49 40 48 57 56 54 53 47 37 40 53 54 49 47 48 53 62 69
11 11 11 13 15 17 19 18 18 18 19 20 21 20 20 20 20 21 19 18 18 18 18 19 22 23 21 23 22 17 21 21 18 21 21 21 20 20 20 19 19 18 19 18 17 18 19 28 28 38 44 32 38 33 32 57 47 34 51 58 56 52 38 39 50 52 54 48 44 46 43 49 51 50 60 60 53 46 38 43 54 57 55 54 56 57 63 70
14 13 13 15 18 19 18 18 18 18 20 21 20 20 20 20 22 20 19 18 17 18 18 20 23 22 22 24 19 24 33 24 19 23 21 20 20 20 20 20 20 17 18 18 19 23 28 34 31 37 43 35 38 38 41 60 53 40 53 59 54 51 44 47 52 56 60 49 45 51 45 47 47 48 57 54 46 42 43 48 51 54 56 58 63 62 62 67
15 14 16 18 19 18 18 17 18 19 20 20 20 19 20 22 23 20 19 17 17 19 18 22 24 21 22 22 26 43 43 24 20 23 20 19 19 20 20 19 20 17 19 23 24 24 29 32 33 40 40 34 38 43 45 48 50 48 51 57 56 55 54 59 62 61 63 58 52 51 46 43 44 48 48 40 34 35 40 44 47 52 54 56 62 63 63 66
15 16 18 19 18 18 17 17 19 19 20 20 20 19 20 22 22 21 19 17 19 19 20 25 25 21 20 26 41 48 33 20 22 22 20 18 17 19 20 19 19 20 22 28 27 22 27 33 35 35 34 40 39 45 51 37 37 48 49 56 59 59 65 64 58 57 61 61 52 44 44 46 46 44 42 35 31 37 41 38 39 43 44 44 49 57 63 65
16 17 18 18 18 18 18 18 19 19 20 20 19 19 21 22 22 22 19 18 21 21 24 27 27 23 16 28 47 37 21 21 21 20 21 18 17 18 19 19 18 21 24 26 28 27 29 31 36 38 38 46 43 44 53 35 34 55 59 60 64 64 65 59 50 54 58 54 51 45 42 47 46 41 39 35 33 40 41 35 37 40 40 40 42 47 53 62
17 18 18 18 18 17 18 18 19 19 19 19 18 20 22 21 21 22 19 19 22 23 26 26 28 25 16 27 41 28 19 21 19 20 21 18 18 18 18 19 18 19 22 25 28 30 30 28 35 40 34 37 40 45 51 44 47 64 61 54 67 68 54 49 48 53 50 43 50 48 43 47 46 43 42 37 35 41 42 40 41 41 42 42 42 43 44 53
17 18 17 17 17 17 18 18 19 19 19 19 19 21 21 21 21 21 19 20 22 23 25 26 27 25 23 31 32 22 19 20 20 20 20 20 19 18 19 18 18 19 19 23 27 28 28 30 36 40 35 34 39 40 44 55 62 66 60 47 58 64 45 42 49 55 46 38 50 51 41 40 42 44 41 38 39 42 45 43 42 43 44 44 44 44 42 46
17 17 16 17 17 17 18 18 19 19 18 18 19 21 20 20 20 19 20 20 22 23 23 26 26 22 27 32 24 18 19 19 19 20 20 21 19 19 20 18 19 20 19 21 24 25 27 27 33 44 49 47 41 35 44 65 64 54 55 55 59 56 39 38 52 58 43 40 52 48 42 39 38 41 38 40 44 44 44 41 42 45 44 45 45 44 42 44
17 16 16 16 16 17 18 18 19 18 17 18 19 20 20 20 20 19 20 21 22 22 21 26 26 21 26 28 20 18 18 18 18 21 21 19 20 19 20 20 20 20 20 21 22 26 28 23 32 47 54 56 47 41 59 74 66 52 54 69 73 53 34 39 62 66 44 50 57 42 51 53 38 38 37 40 46 47 46 40 43 46 44 45 44 43 41 42
16 16 16 15 16 17 17 17 18 17 17 18 19 21 22 22 20 18 20 19 20 20 19 24 23 23 31 26 17 18 17 17 19 21 23 22 21 22 22 21 20 21 21 21 24 28 27 23 35 48 50 58 60 60 70 72 74 71 53 59 74 60 47 47 66 76 55 58 65 46 58 66 45 39 40 40 46 49 46 40 42 43 42 42 41 41 39 38
16 16 16 15 16 16 17 18 17 17 17 17 20 23 23 22 19 18 19 19 19 19 18 21 19 24 34 23 15 18 18 19 20 20 24 24 23 26 24 20 21 22 21 22 24 26 25 31 47 53 53 59 63 72 78 71 78 82 57 52 66 64 60 50 53 75 68 60 65 52 57 64 46 38 40 40 47 50 45 40 41 41 42 42 40 40 39 37
17 17 16 15 16 16 18 18 17 18 17 18 21 21 21 21 19 18 19 20 19 18 19 18 17 23 26 18 18 22 22 21 19 21 25 24 26 27 23 24 28 25 26 25 20 25 31 41 50 48 57 64 61 71 75 64 65 77 74 69 72 68 67 58 46 62 69 59 61 58 58 61 48 42 44 43 48 51 43 40 41 41 41 41 41 39 37 37
16 17 16 15 17 17 18 17 18 19 17 18 18 18 20 19 17 17 19 19 18 22 23 21 23 27 25 21 23 24 23 22 19 21 25 24 26 27 25 30 33 28 36 34 24 37 44 49 53 42 51 64 68 74 63 49 54 67 76 77 81 77 69 65 54 60 69 59 59 60 57 57 49 45 46 42 47 51 44 43 43 43 43 41 41 39 38 36
17 17 15 17 18 17 19 19 20 19 18 18 17 19 19 20 23 19 17 20 25 28 27 29 31 30 26 24 24 23 23 21 19 19 23 26 25 25 25 31 36 37 49 42 30 52 58 53 62 56 56 66 74 78 63 53 58 65 73 77 83 80 68 61 57 69 76 64 63 64 59 59 53 48 48 43 47 52 49 47 44 43 45 43 41 41 39 37
16 15 14 19 17 18 23 24 25 21 19 19 19 22 24 35 44 33 27 33 38 36 31 36 36 28 25 25 24 23 22 18 16 19 22 26 26 24 29 41 44 44 62 55 36 55 62 53 63 62 62 70 72 76 74 71 70 74 81 84 85 82 68 50 50 74 78 64 72 76 68 64 56 49 48 50 49 47 48 50 47 44 46 47 45 45 42 41
14 13 18 19 16 22 26 26 26 19 17 17 18 24 28 37 41 33 34 38 39 40 37 38 37 30 25 24 25 26 26 20 16 20 20 25 30 24 33 54 45 34 61 71 52 53 54 48 58 60 63 72 77 84 85 83 82 81 82 78 73 69 59 42 48 74 70 59 74 81 68 53 47 47 50 56 49 39 42 46 46 46 49 50 47 46 47 48
12 13 19 17 17 24 24 23 22 16 16 15 16 30 36 36 33 30 35 32 26 33 40 38 33 31 27 23 26 29 28 25 21 20 19 27 35 32 43 59 48 39 60 71 60 55 49 44 54 68 78 80 85 89 83 81 85 80 74 67 59 56 58 54 58 71 66 61 74 78 67 51 48 54 55 60 54 43 49 51 51 54 52 48 47 48 52 53
10 14 17 16 20 22 21 20 18 16 17 15 18 29 34 34 34 31 32 30 21 25 38 39 31 30 30 24 24 29 29 28 29 23 21 35 45 53 61 58 57 63 65 59 47 41 38 41 60 81 82 68 67 79 77 71 72 69 61 53 53 55 55 53 57 68 68 66 73 74 67 56 52 51 45 53 61 54 54 56 59 63 57 53 54 54 56 58
10 14 15 17 20 19 20 18 17 18 16 18 21 25 29 30 32 33 34 34 25 21 29 33 31 29 28 24 22 31 34 30 33 26 21 38 49 57 61 56 62 68 68 68 56 43 37 45 72 83 72 57 54 69 75 63 59 68 63 46 47 58 59 55 60 70 68 67 72 63 49 48 49 38 28 42 58 51 47 51 52 57 58 57 56 54 55 58
10 13 16 18 18 19 19 17 21 21 17 21 22 24 27 24 31 36 35 37 28 19 25 26 27 26 23 23 24 36 41 29 29 29 24 34 45 50 52 55 56 52 62 73 60 50 48 57 70 63 61 66 54 57 65 61 60 64 64 51 45 59 67 70 76 70 56 51 58 51 33 37 45 35 32 46 51 43 44 52 52 54 57 56 57 56 55 55
10 13 18 17 17 19 16 17 25 23 21 26 24 25 24 22 35 35 36 53 40 16 20 20 17 20 20 24 32 42 42 29 24 26 24 29 39 43 42 50 53 48 63 66 47 41 46 61 69 53 56 63 48 48 56 63 63 45 47 59 58 66 71 78 81 58 40 37 48 57 38 31 36 25 33 51 49 48 52 56 58 58 59 59 59 58 56 57
10 13 17 17 18 17 18 24 28 27 29 31 30 30 26 26 30 25 36 60 45 17 19 23 17 16 20 25 35 36 27 25 23 23 26 26 34 41 39 47 50 47 64 64 37 31 39 56 70 63 60 54 42 45 52 62 58 36 44 63 66 68 66 80 81 57 58 54 49 66 50 35 44 33 36 51 49 57 63 61 63 61 61 62 60 59 58 58
9 11 16 18 17 17 22 26 26 28 30 28 29 30 32 32 26 31 45 41 27 18 19 25 17 16 27 30 36 38 31 32 23 18 27 24 27 38 37 45 47 39 55 55 25 26 47 53 58 62 57 48 39 40 54 65 57 48 59 66 71 76 73 88 89 79 92 61 30 57 50 32 45 37 36 50 56 68 71 68 69 64 63 63 60 60 58 56
8 10 16 19 18 19 21 20 19 23 25 24 24 26 32 31 26 44 54 28 16 20 20 23 16 23 44 42 43 48 38 38 32 26 34 27 24 33 34 45 52 39 43 48 27 27 51 56 56 59 49 43 45 51 65 64 51 58 65 59 70 84 85 93 88 85 92 52 22 50 49 32 40 41 49 61 68 78 77 71 70 65 64 62 60 61 57 56
8 10 17 19 19 20 19 19 20 19 22 23 23 28 28 31 47 53 39 20 16 22 26 26 22 38 58 48 45 50 40 43 49 44 44 35 29 36 39 48 58 47 40 49 41 33 50 64 67 67 55 50 57 67 76 73 64 64 59 47 47 56 72 90 88 70 57 38 33 49 49 41 46 57 71 72 69 77 79 75 70 64 62 59 58 59 57 56
9 13 19 19 20 24 21 21 22 19 24 23 24 32 22 35 71 58 24 16 18 27 33 33 42 58 63 48 37 43 48 51 55 50 46 42 38 40 41 44 53 53 44 44 42 40 49 53 54 63 67 64 60 52 61 80 79 61 49 40 30 33 54 79 85 62 35 30 43 58 61 53 53 64 72 69 67 72 77 76 71 66 63 58 56 55 55 55
11 15 19 18 18 21 19 20 23 20 24 23 27 41 35 38 52 37 29 27 15 26 33 35 54 61 57 51 36 41 50 47 51 54 50 53 56 52 51 52 49 40 33 36 36 38 39 33 35 47 56 60 51 34 42 66 65 50 50 47 40 46 54 59 64 58 45 35 40 55 58 50 53 62 66 69 70 69 69 70 68 65 61 56 53 52 52 52
14 16 17 17 17 17 17 20 22 20 23 24 32 52 53 41 27 21 41 37 17 32 42 44 61 60 51 45 36 46 48 33 41 49 47 56 62 59 59 63 57 34 24 32 35 34 33 33 35 34 36 47 45 32 36 49 51 52 55 48 48 58 60 62 63 56 48 38 35 41 46 51 53 57 68 70 66 65 64 64 63 61 59 54 49 49 49 48
17 16 15 17 18 19 21 21 20 21 23 24 42 61 47 25 20 24 38 44 42 50 53 55 56 45 40 37 36 48 41 27 38 46 49 55 57 59 58 58 60 50 40 37 34 34 32 30 29 24 26 40 46 42 44 47 53 65 63 52 54 56 57 70 70 52 44 48 49 41 44 59 52 50 69 69 61 63 59 59 59 54 55 53 47 47 48 48
16 15 15 16 19 23 25 24 20 20 21 22 44 61 38 15 26 34 34 47 57 54 51 52 49 41 40 43 48 45 28 27 42 49 52 54 54 57 57 56 60 60 54 41 32 37 33 23 26 33 38 45 48 50 57 51 42 58 67 54 53 55 55 68 69 55 52 66 79 68 57 63 59 59 73 68 60 60 53 53 54 48 49 49 47 50 49 50
14 13 15 16 19 24 29 28 22 18 21 26 37 46 38 26 31 39 43 47 50 52 49 39 40 48 46 47 55 47 30 31 41 41 42 51 54 50 52 61 62 59 57 45 35 39 33 21 29 39 38 47 58 57 62 54 32 43 56 42 44 58 60 66 70 65 62 68 77 72 57 54 60 70 76 68 62 58 51 51 50 48 50 48 50 53 51 51
15 14 16 17 19 22 27 29 23 18 21 30 37 40 42 40 38 47 59 57 51 55 52 33 26 36 40 42 50 49 40 35 35 32 31 40 45 43 51 59 55 57 63 53 41 39 38 36 42 38 25 41 69 65 63 67 51 44 46 39 47 63 68 75 76 70 70 71 65 57 49 44 47 63 73 70 66 61 56 53 52 53 52 51 54 52 49 47
17 18 19 18 18 20 23 22 19 21 25 40 60 58 47 46 49 59 67 62 57 57 52 36 22 26 37 38 40 50 51 40 38 40 34 32 32 36 49 51 50 67 77 67 53 48 48 43 42 43 33 37 53 46 40 56 60 50 45 44 46 52 62 70 69 65 67 73 71 61 51 47 56 74 81 76 69 64 60 56 56 57 54 55 55 46 41 38
18 25 26 18 16 19 20 15 16 26 30 43 68 63 48 53 63 74 76 65 59 58 51 38 27 30 40 40 41 55 57 41 38 41 31 25 26 35 49 48 47 68 81 74 64 58 51 39 33 41 40 31 30 28 25 35 53 59 55 53 51 51 57 59 61 70 71 72 79 74 56 55 77 89 81 74 68 63 64 61 57 56 54 54 48 39 36 34
21 29 22 12 16 17 14 12 23 41 44 52 66 57 48 57 63 75 87 78 62 48 40 42 40 36 41 45 45 53 60 55 50 42 31 28 28 34 55 60 52 62 76 74 69 62 50 39 34 37 38 31 23 24 22 22 37 51 51 56 64 65 66 64 62 68 72 72 82 88 71 62 78 81 69 69 66 59 63 62 53 47 45 43 38 34 36 35
32 36 20 12 18 16 15 23 46 68 68 64 63 54 54 58 51 62 82 83 67 49 44 52 51 42 44 45 42 49 62 64 59 46 35 35 27 26 56 79 74 70 67 59 62 61 51 48 50 47 40 29 19 21 26 25 32 43 49 59 69 69 68 73 72 71 78 79 78 92 90 71 70 72 64 62 60 58 60 52 44 39 35 36 36 34 35 36
43 40 20 14 15 13 19 40 70 89 82 66 54 54 68 67 48 49 63 63 57 55 54 54 54 55 55 48 48 59 62 55 53 43 33 35 29 30 64 92 95 90 70 53 60 66 62 62 61 54 42 27 23 37 52 52 44 49 63 69 73 78 78 83 87 83 85 80 69 84 92 76 72 77 70 63 59 58 54 44 40 40 36 37 38 35 35 36
38 25 12 14 15 15 23 41 64 77 72 62 56 58 67 65 51 47 53 53 49 48 47 48 49 47 49 54 57 58 47 37 40 37 34 41 41 52 85 98 96 92 69 48 54 59 59 61 53 44 40 31 25 38 60 64 48 49 70 76 77 83 84 87 90 85 89 90 82 92 94 72 69 78 69 59 57 54 47 40 40 40 38 38 36 34 35 37
35 18 17 17 6 10 28 41 49 59 61 53 51 56 57 54 56 53 50 55 58 52 43 45 47 40 47 63 64 56 44 29 27 32 38 43 49 74 103 100 91 88 68 55 61 54 44 48 49 42 39 35 27 27 40 47 42 52 74 82 79 78 79 86 91 90 95 88 80 98 99 67 54 58 50 47 54 51 40 35 36 37 38 37 36 36 36 38
39 26 31 27 11 22 47 54 52 59 64 55 47 52 52 47 55 63 58 58 68 66 47 41 50 53 58 63 61 63 57 32 23 36 44 43 51 80 104 99 94 96 89 86 89 72 48 45 51 42 34 41 45 40 38 39 41 55 75 83 82 83 84 83 88 97 97 83 79 96 95 65 47 44 41 48 55 46 34 31 33 35 37 37 38 39 39 42
34 28 35 35 28 42 60 70 73 65 60 63 53 43 42 38 43 61 63 53 60 69 58 50 54 54 53 56 57 64 62 45 37 46 52 50 51 69 92 101 101 99 98 99 96 84 69 62 60 47 34 41 48 39 35 44 50 60 77 84 84 90 90 81 86 95 91 89 91 83 73 69 60 47 46 54 51 39 33 35 36 36 38 39 39 41 43 45
41 32 35 31 26 46 61 68 82 71 54 62 53 33 41 46 38 44 48 44 55 66 60 59 61 50 47 56 54 47 47 46 40 40 49 60 64 67 78 93 100 96 95 99 94 80 63 55 61 60 47 44 46 40 39 51 63 72 84 85 80 87 89 83 88 86 80 94 96 67 61 74 64 47 50 53 43 37 37 38 39 40 40 40 42 44 47 47
43 35 40 34 24 41 51 47 65 72 65 73 65 45 54 61 47 42 43 44 53 52 40 42 55 60 64 65 48 33 38 43 37 38 48 62 72 71 65 73 91 98 90 85 88 79 56 46 57 66 63 57 54 52 51 58 72 81 82 79 77 83 84 83 84 76 74 93 89 64 62 66 52 45 51 46 38 39 41 39 40 41 42 45 47 48 49 48
38 36 45 50 44 50 58 57 61 59 59 76 71 50 56 59 46 47 53 49 45 42 34 28 37 60 80 77 51 35 39 40 36 44 54 58 63 65 54 51 70 89 83 72 82 80 60 59 74 79 76 67 58 57 57 62 79 85 79 75 75 76 76 76 74 68 69 74 66 57 56 49 42 46 46 39 37 40 40 40 42 43 46 49 50 50 50 48
34 35 39 52 60 68 79 81 71 54 55 72 61 44 57 59 41 45 55 44 31 34 41 37 40 63 86 83 60 42 39 36 31 42 55 58 64 68 55 41 55 80 83 77 81 70 49 60 85 91 79 59 49 55 58 65 84 89 81 77 74 72 71 71 68 66 66 64 54 49 50 44 40 42 40 38 39 40 42 44 46 46 48 50 52 51 50 49
28 29 29 37 48 59 68 73 73 65 58 60 51 42 49 48 43 47 45 43 44 39 39 46 52 68 82 76 61 52 53 53 46 49 55 55 61 67 56 48 60 75 81 87 90 80 68 70 82 92 82 55 44 54 58 70 89 94 90 86 78 74 72 68 65 60 57 59 54 48 50 50 44 40 41 41 41 44 47 48 49 49 49 51 52 51 49 51
26 23 28 38 41 53 69 70 69 63 45 43 55 58 51 54 67 57 30 41 70 64 51 55 56 62 67 52 40 45 56 62 64 70 73 69 71 77 73 71 73 70 77 90 94 94 90 79 79 92 84 57 50 58 59 64 71 73 81 85 75 69 67 61 56 50 43 45 47 47 50 49 43 42 46 46 46 49 50 49 50 51 51 50 50 50 51 53
Wind_Speed
4 3 3 3 2 2 2 2 2 4 5 7 9 10 10 10 10 11 10 9 10 13 14 13 10 7 5 5 7 9 10 7 12 20 16 11 16 20 19 16 13 12 11 10 12 9 8 10 10 11 6 3 4 1 2 3 3 4 3 2 2 3 3 5 6 6 3 5 5 4 1 4 7 5 2 2 1 4 4 6 5 5 9 11 13 10 5 3
3 2 2 1 1 2 2 1 3 4 6 7 9 8 8 9 11 12 9 8 10 12 13 12 10 7 5 6 8 11 9 5 9 15 15 16 20 21 17 14 12 11 11 10 11 10 6 6 7 8 6 2 2 1 2 2 3 3 3 1 3 5 5 5 5 4 3 5 6 5 2 5 6 3 1 3 6 6 6 8 3 6 12 14 18 16 9 5
1 0 1 1 2 2 1 2 3 5 7 8 8 7 8 9 11 12 9 8 10 11 11 10 9 7 7 7 8 12 9 3 7 9 15 20 20 20 17 12 11 11 11 10 10 8 4 2 3 4 4 2 2 2 3 3 2 2 3 1 5 5 4 5 5 6 6 4 6 7 2 3 5 3 0 2 7 7 7 9 4 7 12 11 13 12 11 10
1 1 2 2 2 2 1 3 4 5 7 7 6 6 8 10 11 11 8 7 9 10 9 9 9 8 9 9 9 11 6 6 4 8 16 21 19 20 16 11 11 11 10 10 9 6 4 2 3 4 4 3 3 3 3 3 2 1 3 3 5 3 3 6 6 7 6 3 4 5 4 5 5 2 1 0 5 9 9 9 8 11 12 11 10 6 8 10
1 3 3 2 2 2 2 3 5 6 6 5 5 7 8 10 11 9 7 7 7 8 8 9 9 10 12 11 10 11 4 5 5 10 18 20 18 19 16 13 13 11 10 10 8 5 4 4 6 6 4 3 4 4 2 2 2 0 3 5 5 4 3 7 5 5 5 3 4 5 6 6 3 1 3 3 3 8 8 2 5 10 9 10 9 5 5 7
3 3 3 2 2 2 3 4 5 5 4 4 5 7 9 11 10 7 5 6 5 6 8 8 9 12 14 10 8 9 5 3 6 12 18 18 17 17 15 16 15 10 9 9 8 5 4 5 6 5 3 3 3 2 1 3 2 1 4 2 4 4 4 6 3 3 3 2 5 4 4 3 4 5 3 5 9 12 10 6 4 9 9 9 8 5 5 8
3 3 2 2 2 2 3 4 4 4 3 4 6 8 10 11 8 5 4 4 4 6 8 8 10 13 13 6 5 9 8 1 8 13 17 19 17 15 14 16 15 10 8 9 9 4 4 7 6 3 4 4 1 1 1 4 3 2 3 4 2 4 5 5 5 6 4 5 8 2 4 5 4 6 3 4 13 12 11 10 8 10 10 9 7 8 8 8
3 3 2 1 2 3 4 4 3 3 3 5 7 10 11 9 6 4 4 4 4 7 8 8 11 14 12 4 3 6 5 3 10 14 17 19 17 14 12 14 15 10 9 11 7 2 4 6 3 3 3 2 2 2 1 3 3 3 3 4 1 2 5 6 6 8 6 6 5 4 5 8 6 3 3 10 14 9 8 9 8 8 9 7 6 9 9 8
3 2 1 1 2 4 4 3 3 3 4 6 8 10 9 8 7 5 4 4 5 6 6 8 10 13 11 4 5 5 3 6 11 14 15 19 19 12 9 11 14 11 10 12 9 5 4 2 1 3 2 1 4 1 2 3 3 3 3 3 4 5 6 7 7 7 7 4 3 5 6 8 5 2 3 10 9 8 9 10 10 8 10 9 7 8 8 9
2 1 1 2 3 4 3 3 3 3 5 7 9 10 8 6 7 5 4 4 4 5 6 8 8 11 12 7 6 5 5 8 11 13 14 20 19 8 6 10 11 12 11 11 12 8 3 4 3 3 5 2 2 1 0 1 0 3 3 4 5 6 5 6 6 7 7 3 3 5 8 8 5 1 3 8 5 7 12 13 12 10 10 10 8 8 6 7
2 1 1 3 3 3 2 3 3 4 6 8 10 9 7 6 6 5 4 4 4 5 6 7 7 7 10 9 7 4 6 9 11 13 15 20 16 6 6 9 9 10 8 7 8 6 2 5 5 4 2 1 1 2 1 1 2 0 3 5 7 6 3 7 7 6 7 2 4 4 7 6 4 0 4 9 8 9 12 13 12 10 8 9 9 8 6 5
1 0 2 3 2 2 2 3 4 5 7 9 9 7 6 5 5 4 3 3 4 7 7 7 9 5 4 7 6 3 8 10 12 14 17 21 14 6 6 7 6 6 5 5 5 5 4 3 6 6 1 0 1 2 0 2 2 1 5 4 9 9 5 9 8 6 6 3 7 5 4 6 2 3 7 9 10 10 10 10 11 9 8 8 7 7 6 6
1 1 2 2 2 2 3 4 5 6 8 8 6 5 6 5 4 4 3 3 4 7 8 6 9 6 3 4 1 5 10 10 15 18 20 20 9 5 7 5 4 5 4 5 5 6 6 3 8 7 2 3 1 1 2 4 3 1 5 4 6 8 5 7 7 8 6 3 9 6 3 7 6 7 7 7 10 12 10 9 9 8 7 7 6 6 7 7
0 1 2 2 3 3 4 4 5 6 7 6 5 6 6 5 5 4 2 3 3 8 9 6 7 6 4 0 2 8 14 13 19 24 23 17 7 4 6 5 5 6 4 5 7 8 5 6 11 7 3 4 1 2 4 6 5 3 4 3 4 5 5 8 7 8 8 3 8 8 0 6 10 12 7 6 9 9 8 8 8 7 6 6 6 7 7 7
0 1 2 3 3 3 3 4 4 6 5 4 4 6 6 6 6 4 2 3 3 8 9 6 6 4 3 0 2 10 16 16 21 26 22 16 10 6 6 6 5 5 4 5 9 11 9 8 11 6 3 3 3 5 5 4 5 4 4 4 4 3 6 11 4 6 7 5 7 8 1 6 9 12 9 8 9 7 7 7 7 7 7 7 6 7 7 7
1 2 2 3 3 3 3 4 5 6 5 3 4 7 10 11 6 3 2 4 4 7 8 7 7 3 5 2 7 10 12 13 19 23 19 12 10 9 6 6 6 6 8 9 8 9 13 11 7 3 3 5 6 5 4 5 5 4 4 3 5 4 6 9 3 4 5 5 7 6 2 5 7 10 12 9 8 7 6 7 7 7 7 7 6 6 7 7
1 2 3 3 3 2 3 4 5 5 4 2 3 5 10 16 12 1 4 4 3 5 4 7 8 1 5 4 7 7 9 12 15 22 21 10 8 12 8 5 5 6 9 11 11 8 11 8 2 2 5 6 5 3 5 5 5 4 4 2 4 3 4 6 5 5 8 4 5 3 3 6 9 10 13 8 6 7 6 7 7 6 6 6 6 7 7 8
1 3 3 3 2 3 3 4 5 5 4 1 1 2 5 14 19 16 8 1 4 4 3 8 9 3 2 7 5 10 15 14 14 21 24 13 7 13 14 7 4 5 5 8 12 9 6 5 3 3 4 6 6 6 6 0 3 3 4 3 4 3 3 5 6 6 9 7 6 5 2 8 12 11 10 8 6 7 6 6 6 6 6 6 7 7 7 9
2 3 3 2 2 2 3 4 5 5 3 1 3 4 3 4 11 19 21 12 3 3 2 5 6 4 2 6 8 15 15 10 13 23 28 19 8 9 14 12 6 6 6 4 7 7 4 4 5 4 5 7 5 3 3 4 4 4 4 2 4 5 5 7 7 4 6 8 8 4 4 9 12 13 10 9 7 6 6 6 5 6 6 6 7 7 8 9
2 3 2 2 2 2 3 4 6 6 4 3 5 4 2 2 4 7 13 13 6 4 3 2 1 1 3 5 10 19 12 5 12 24 32 24 9 7 11 10 8 8 6 1 3 4 3 6 6 3 4 6 5 3 3 3 2 3 2 1 5 4 6 8 6 5 4 5 5 3 6 10 10 12 10 8 7 6 6 7 6 6 7 7 7 8 9 8
1 2 1 1 2 3 4 5 6 6 6 4 2 2 1 1 4 1 2 5 2 2 3 2 2 1 4 4 10 16 7 3 9 21 33 23 6 6 8 7 8 7 4 1 2 4 5 7 5 5 6 5 4 2 1 1 2 1 1 3 5 3 7 10 4 4 5 4 5 4 9 13 10 9 10 6 6 5 5 5 7 7 7 7 8 10 10 8
1 1 1 1 4 4 4 6 7 7 9 8 7 7 4 3 4 3 3 4 2 2 1 3 1 3 5 1 10 13 3 5 10 17 30 23 9 6 3 5 8 3 5 3 2 6 7 5 6 6 3 1 2 3 3 2 4 2 0 1 5 3 6 9 3 1 4 2 5 5 7 12 10 8 9 6 4 5 5 4 5 7 8 9 10 12 13 13
1 2 2 2 6 4 4 6 6 7 10 11 10 7 4 3 3 3 2 5 1 2 2 4 4 6 7 4 12 14 6 7 6 12 25 18 7 5 3 6 7 3 6 6 5 4 5 3 4 3 2 3 3 5 6 4 3 2 1 2 5 4 3 5 3 5 6 0 3 7 5 8 8 6 7 5 3 5 7 7 7 8 10 11 12 13 15 17
1 2 2 4 6 4 4 5 5 6 10 11 10 7 5 3 1 2 3 3 1 2 2 1 2 3 4 4 13 10 4 4 1 9 20 13 3 3 4 3 4 4 4 4 7 7 2 3 1 4 7 6 3 5 7 6 5 2 2 2 5 6 2 4 6 9 8 1 1 6 5 4 5 6 7 6 4 7 11 15 16 14 14 13 14 16 16 16
1 2 3 5 6 3 3 3 4 6 7 7 7 5 5 3 0 2 3 4 3 3 2 1 1 4 3 5 14 6 3 3 1 5 13 10 4 2 3 1 4 5 1 2 6 5 1 3 1 4 7 7 5 4 5 4 5 4 3 3 5 7 6 6 7 7 6 4 3 5 5 5 5 5 6 6 8 13 15 19 18 16 15 15 15 15 14 14
2 3 4 5 5 2 1 1 4 5 4 3 3 1 1 1 1 1 3 5 4 4 5 4 2 8 8 7 12 3 3 4 2 5 12 11 5 2 3 3 2 4 1 2 3 2 1 3 3 4 4 7 7 4 2 2 4 6 2 4 3 5 6 5 4 3 3 4 4 4 4 4 6 5 6 5 9 15 16 17 16 14 14 13 12 12 12 13
1 3 4 4 4 1 1 1 3 4 3 2 2 3 3 2 2 1 2 6 4 2 5 5 3 8 9 9 10 4 3 7 4 8 13 13 8 2 5 5 2 4 0 2 4 1 1 6 7 6 4 6 7 4 2 3 3 4 2 1 5 6 5 2 2 1 1 3 4 4 3 2 5 4 5 7 10 14 16 15 14 12 12 12 11 12 12 12
1 3 4 3 3 1 2 2 3 3 2 4 5 5 5 4 3 1 5 5 3 2 1 4 4 7 8 9 11 7 1 6 3 7 13 15 11 3 4 3 3 1 2 4 4 1 1 5 5 4 5 5 4 4 3 3 1 6 4 5 5 3 1 3 4 1 1 2 4 5 2 1 6 4 5 8 10 12 12 12 12 11 11 11 11 12 12 11
2 3 3 2 2 2 4 5 4 3 3 4 3 2 3 1 1 3 6 3 2 2 1 2 5 7 8 8 9 6 3 4 4 7 13 13 12 7 4 1 6 4 3 5 4 2 1 0 2 2 4 4 4 5 3 5 1 7 6 5 2 3 2 3 4 2 2 4 3 6 2 1 5 5 6 7 7 8 8 7 8 9 10 10 10 11 11 11
4 4 4 3 2 1 2 5 6 4 2 2 3 2 1 2 4 6 4 0 1 3 1 3 4 4 9 8 7 6 6 4 2 6 7 5 11 10 4 1 5 6 3 5 5 2 2 1 2 2 1 2 4 5 2 5 4 6 6 5 3 4 3 3 2 3 4 4 5 7 1 2 2 3 3 4 3 3 4 4 6 8 9 10 10 10 11 11
6 6 5 3 2 1 1 3 5 3 2 3 2 2 2 3 5 7 2 2 1 3 3 5 3 4 8 6 4 6 5 5 6 7 6 4 9 11 6 4 4 5 6 6 6 6 3 2 1 1 1 0 3 5 1 1 4 4 5 5 5 5 4 4 5 4 4 5 7 5 1 1 3 3 2 1 3 5 3 4 7 9 10 10 10 10 10 10
8 7 5 3 2 2 1 1 2 2 2 1 1 3 4 4 5 3 1 4 3 3 3 3 4 5 6 3 4 6 4 5 5 5 4 3 6 7 7 5 2 4 7 5 6 6 3 2 3 3 1 2 3 5 5 4 5 6 5 6 6 5 5 5 5 3 0 6 5 2 1 2 4 3 4 5 4 4 2 3 6 8 9 9 10 9 9 9
10 7 5 5 4 3 2 1 1 2 1 1 2 5 7 6 2 1 3 3 2 3 2 1 4 4 4 4 5 5 2 3 5 5 2 1 4 4 4 4 2 2 3 2 4 6 4 5 6 5 2 1 4 4 5 5 5 6 4 4 5 3 5 5 5 4 4 8 4 1 2 4 2 2 5 6 5 3 1 3 4 7 7 9 11 10 11 12
12 8 7 8 7 5 2 2 2 2 1 3 4 6 8 5 1 1 2 3 2 3 2 0 5 4 3 4 3 4 2 2 4 5 4 3 5 4 4 7 7 3 1 2 2 3 5 5 5 4 3 3 4 2 1 2 2 2 1 3 4 2 1 3 4 4 7 9 6 3 2 4 3 1 7 6 4 2 2 4 4 6 7 8 10 10 12 13
14 12 13 14 13 10 4 2 2 1 2 5 7 7 7 2 3 1 1 4 2 4 2 1 3 5 4 3 3 3 2 2 3 4 5 5 3 2 3 5 6 4 3 3 1 1 3 4 6 3 2 1 3 1 2 2 2 2 2 4 3 1 3 2 4 5 4 5 5 4 3 3 0 1 4 4 2 0 3 5 5 8 10 10 10 11 12 13
14 16 18 20 19 14 8 1 3 3 4 6 9 6 3 2 1 1 1 2 1 2 4 4 4 5 5 5 4 5 3 2 3 4 4 3 1 1 1 2 3 3 3 3 0 1 2 5 6 5 3 0 2 2 1 2 2 1 2 3 3 3 6 2 4 2 1 3 4 3 4 2 1 1 2 1 3 5 8 10 10 11 15 16 14 13 13 14
12 13 15 22 22 15 10 4 4 6 6 7 8 4 1 2 1 2 2 1 1 0 3 3 3 4 3 3 4 7 6 3 3 4 3 2 1 1 2 2 1 2 1 2 1 1 1 4 6 4 5 4 2 1 2 2 1 2 2 4 2 1 4 3 2 3 3 4 4 4 9 8 3 3 3 6 10 12 13 14 15 16 20 19 16 16 17 17
5 6 10 21 24 14 8 7 6 7 7 8 8 3 1 0 1 2 1 0 1 2 5 3 1 2 0 1 4 7 5 4 5 4 2 2 1 2 2 2 0 1 3 1 1 0 3 2 7 1 3 7 2 3 4 4 1 2 1 2 2 2 3 2 1 4 5 5 5 5 11 10 4 3 5 9 10 12 14 15 15 17 18 15 15 17 19 19
2 3 5 18 21 12 6 5 6 8 8 6 4 2 1 0 1 2 1 0 0 3 5 1 1 2 1 1 1 5 3 3 3 3 2 2 2 2 2 1 1 2 3 1 2 1 2 1 5 4 4 7 4 4 4 6 5 4 2 2 2 2 4 2 2 1 2 5 5 5 8 7 1 2 2 4 6 9 12 12 12 13 13 12 14 16 16 17
2 3 3 17 17 7 10 14 11 9 8 4 2 2 1 1 2 2 1 1 0 2 2 1 1 2 2 0 0 2 2 1 1 2 1 1 2 2 3 1 2 4 4 3 3 1 1 2 3 7 6 5 4 2 2 3 4 5 4 4 5 2 1 2 1 1 0 4 4 5 9 7 1 2 1 3 4 7 8 9 11 12 14 13 15 15 14 15
4 4 4 18 13 1 7 17 12 5 5 4 2 2 1 1 0 3 2 0 0 0 2 4 3 1 0 1 1 1 1 1 0 0 1 1 2 2 2 1 1 3 3 3 3 2 1 1 2 6 6 4 5 4 1 0 1 3 3 3 3 2 2 3 5 2 1 2 4 6 10 8 0 2 2 3 4 7 8 11 14 15 16 15 15 15 14 15
6 4 6 16 9 8 10 10 4 3 5 3 2 2 1 1 1 2 2 1 1 0 2 3 2 1 2 0 1 1 1 1 1 1 0 1 1 2 3 3 2 2 1 2 2 1 0 2 0 4 4 5 10 4 4 4 6 8 4 3 2 2 5 1 6 5 2 4 4 4 8 7 1 2 3 3 4 8 11 15 17 16 16 16 16 17 17 17
4 3 7 13 4 7 13 7 3 5 4 0 1 1 1 1 1 2 2 2 1 0 2 2 1 0 1 1 0 1 0 1 2 1 0 2 1 1 2 3 3 3 1 1 2 2 1 3 2 5 5 6 9 3 5 4 6 7 5 5 3 2 1 4 4 2 3 4 2 2 7 7 1 1 5 6 6 10 13 16 17 16 16 16 18 19 18 18
3 3 6 16 7 3 6 5 2 3 2 0 2 3 3 1 1 2 2 2 2 1 2 1 0 1 0 1 1 1 1 0 1 1 1 1 1 1 1 3 4 2 3 1 1 2 2 1 2 4 7 8 8 6 4 2 3 4 3 3 3 3 2 1 1 3 2 3 6 5 8 9 5 7 13 13 10 13 16 17 17 16 16 16 17 17 17 18
4 2 3 16 20 11 4 4 6 5 3 2 4 4 4 2 1 1 0 1 1 2 1 1 0 1 1 1 1 1 2 2 1 2 2 0 2 1 2 4 3 2 2 2 2 2 1 0 3 4 5 7 7 7 8 7 5 1 3 4 4 5 6 3 2 2 2 7 10 6 8 13 14 16 21 17 12 15 19 19 18 16 16 17 16 16 17 17
4 4 2 9 15 11 4 1 4 6 4 4 4 3 2 2 1 1 2 1 1 1 1 2 1 2 2 3 3 3 2 2 1 2 2 2 3 1 2 3 2 2 1 2 2 2 2 0 2 4 3 6 6 9 9 6 6 5 3 6 4 3 5 3 1 2 5 9 10 7 11 18 20 22 22 16 14 17 19 20 19 17 17 18 17 17 18 16
3 3 1 1 4 5 5 5 5 4 3 4 3 1 2 2 3 1 1 0 0 1 1 2 2 3 3 4 4 3 4 4 3 2 1 2 3 3 2 0 2 3 2 1 1 3 4 2 2 4 6 8 7 11 12 6 4 5 3 5 4 2 4 4 2 5 8 8 8 12 17 21 22 24 21 16 16 18 18 20 19 17 18 18 17 19 20 19
3 3 1 1 2 2 3 3 4 5 5 4 3 1 2 3 3 1 1 2 1 1 1 2 5 4 1 1 2 3 6 6 4 3 2 2 3 4 4 1 1 3 2 2 3 3 4 2 2 3 6 9 9 12 10 4 1 1 2 4 5 4 5 4 4 8 8 7 12 18 22 23 22 20 17 16 17 17 18 19 18 18 19 18 18 20 21 21
3 4 0 2 4 3 1 2 3 5 7 5 3 2 2 3 2 0 2 3 4 3 2 2 5 5 1 1 2 2 3 3 4 4 1 2 4 3 3 1 1 2 2 3 3 1 3 2 3 2 6 10 9 8 5 3 3 2 3 4 4 4 4 4 6 9 10 12 16 20 24 24 18 15 15 16 17 16 17 19 19 21 21 20 22 22 21 20
3 4 2 3 5 2 1 3 3 4 5 4 3 2 1 2 1 1 0 1 2 4 4 3 6 5 1 3 3 1 2 3 3 5 2 2 4 1 1 0 1 4 5 3 2 2 2 3 1 2 5 9 5 2 3 2 4 3 2 5 7 8 7 7 7 8 11 15 18 21 23 20 12 11 16 18 17 17 18 20 21 20 21 23 23 23 22 18
5 6 7 7 4 4 3 3 3 4 4 3 2 1 1 2 1 0 0 1 1 1 2 2 4 4 2 2 1 3 5 5 6 8 6 2 3 3 1 1 1 3 6 3 3 4 4 4 3 4 5 9 6 8 10 5 4 4 3 6 9 11 12 10 7 8 12 17 22 23 18 13 11 13 18 20 19 19 20 22 20 19 22 24 23 22 20 15
8 6 5 7 4 3 2 2 3 4 2 1 1 1 0 0 1 0 1 0 0 1 2 2 0 2 3 5 4 3 3 5 5 5 3 3 1 1 1 1 3 2 1 2 2 3 3 3 4 3 4 8 9 13 14 6 4 3 3 2 7 13 16 14 10 10 14 14 16 17 13 13 17 18 20 22 21 20 20 20 20 20 24 26 23 19 16 17
Wind_Direction
319 320 344 12 14 44 82 63 35 26 22 10 3 3 3 3 2 359 358 6 10 16 25 34 48 48 37 13 359 351 354 11 26 36 42 14 356 354 348 340 339 345 347 347 360 14 18 17 9 8 40 77 16 340 24 27 62 53 87 114 252 208 206 195 193 204 207 281 284 301 241 211 291 306 281 330 286 293 294 261 252 265 260 248 254 264 299 322
314 326 7 26 52 98 109 49 34 24 14 3 4 7 9 11 9 9 7 10 16 22 31 40 44 36 20 0 354 357 349 358 32 33 24 6 359 354 346 343 345 349 354 358 7 24 32 351 336 8 43 56 352 13 52 16 52 86 119 145 239 206 217 204 197 220 222 280 286 291 256 203 254 285 346 297 290 331 316 278 243 254 267 262 260 255 251 232
298 3 66 114 131 115 96 39 31 16 7 3 10 13 12 11 10 12 12 14 20 26 33 37 32 17 360 343 343 351 343 32 41 10 5 5 359 355 352 350 353 355 0 7 7 16 34 319 329 28 47 58 356 11 53 19 10 140 121 237 245 220 250 244 218 236 229 260 299 295 270 208 245 245 5 290 297 311 277 270 254 251 265 264 264 249 232 216
217 132 134 139 132 106 59 36 21 7 6 9 14 13 7 5 7 10 14 18 23 31 32 25 14 0 348 333 335 339 346 59 25 332 358 4 359 359 0 0 2 358 356 3 4 7 29 53 47 51 61 44 339 10 56 351 352 134 137 195 232 204 277 259 218 240 242 216 261 284 325 303 268 213 227 281 315 303 266 251 236 248 265 268 279 262 218 208
153 134 139 134 118 78 49 26 10 6 8 13 10 5 359 357 359 4 14 20 25 30 20 11 3 353 342 331 333 330 357 63 334 332 359 2 360 2 8 9 1 353 353 2 3 14 35 52 59 47 49 41 354 20 23 315 72 139 220 199 214 169 256 269 233 243 239 203 259 296 315 299 296 234 224 192 231 265 264 269 216 241 262 269 288 286 215 206
131 129 131 121 94 62 33 11 4 6 5 6 0 356 352 348 351 359 16 19 24 20 7 4 354 347 340 338 356 0 56 101 314 344 358 1 1 358 8 10 3 358 2 12 16 33 38 31 53 50 37 48 19 29 278 309 47 266 276 266 239 186 223 280 302 269 235 261 277 284 294 320 1 313 245 191 223 243 269 331 315 268 269 273 290 285 236 222
122 120 117 109 71 42 11 2 359 358 357 358 353 351 350 349 350 359 17 17 18 5 2 3 350 346 346 353 36 35 69 116 321 349 354 0 1 352 360 8 12 14 21 26 18 42 66 37 55 102 66 42 14 148 249 313 24 124 256 297 274 185 225 282 314 294 288 267 263 301 328 320 312 299 338 257 251 261 286 308 304 288 285 284 285 272 257 243
119 118 111 90 45 9 354 353 348 350 351 351 350 352 355 359 2 7 23 21 9 2 2 3 354 354 357 11 81 42 49 322 334 351 353 359 0 354 354 5 18 28 44 36 16 87 86 47 64 133 62 24 178 155 324 332 15 132 219 282 285 219 264 300 314 307 312 272 279 357 311 282 259 250 323 278 275 295 299 301 307 304 306 300 275 268 265 258
120 124 104 48 2 347 348 347 345 348 346 347 350 352 358 8 16 23 29 22 7 5 6 8 6 7 9 28 91 62 343 324 345 350 353 356 355 355 354 9 25 39 55 38 29 59 70 83 188 170 141 182 167 162 336 358 339 201 217 275 290 308 312 327 327 332 333 296 343 347 292 281 265 234 287 271 279 309 311 315 319 320 319 314 292 273 261 259
130 132 76 350 340 343 344 345 342 341 341 346 349 354 360 5 13 17 21 23 11 8 10 12 10 16 25 37 74 63 329 338 352 348 348 347 349 356 6 18 28 41 53 37 34 46 72 173 193 151 134 127 139 129 333 31 347 201 253 270 295 317 314 339 337 341 333 291 25 336 291 290 281 285 288 279 295 329 330 324 322 329 322 317 313 298 280 264
146 138 346 330 341 348 344 345 336 335 340 346 350 358 6 1 4 2 8 19 11 10 6 10 8 14 38 51 74 63 337 343 347 345 346 344 351 18 26 20 23 37 50 39 35 37 60 177 165 121 108 90 127 6 316 151 83 33 328 306 324 342 336 360 357 343 347 341 15 323 286 317 340 100 245 286 321 343 334 323 329 342 331 327 328 322 318 290
168 278 329 340 358 353 346 336 330 341 346 350 354 5 10 2 1 352 358 7 0 4 352 357 8 3 48 54 69 33 340 346 350 348 347 349 2 51 41 18 17 38 53 49 40 30 44 166 124 89 353 271 89 355 51 63 66 35 34 8 327 0 26 6 356 330 0 357 335 327 313 347 337 239 259 294 330 344 342 339 346 354 350 351 350 347 353 339
215 324 354 15 11 354 342 336 340 348 350 357 6 16 8 355 354 341 335 351 350 0 353 346 358 3 65 55 42 2 356 1 3 357 354 358 16 72 47 30 44 55 58 61 56 36 44 95 93 97 105 75 1 339 98 27 27 290 37 52 335 7 3 354 352 330 7 359 339 7 352 323 295 279 287 313 345 353 356 357 357 358 360 1 4 9 11 6
299 13 25 23 3 345 336 336 340 343 352 8 15 7 355 340 338 322 311 347 354 357 355 350 353 9 66 107 256 359 5 10 10 2 358 4 32 64 40 63 78 55 62 81 64 46 57 84 79 91 86 62 319 9 40 6 16 342 357 37 28 20 308 329 355 355 15 346 357 35 234 291 304 308 320 347 1 10 4 351 351 356 359 4 6 14 15 13
82 51 27 6 343 333 329 326 329 341 351 0 9 12 11 359 326 297 292 295 325 354 358 1 351 11 75 89 313 357 0 8 9 3 358 4 23 9 12 71 77 36 61 95 76 57 59 78 69 57 330 356 36 44 20 349 16 17 11 350 353 24 305 320 347 45 23 305 1 44 250 282 295 300 325 352 3 20 4 339 346 356 356 7 8 15 16 10
109 36 2 339 326 321 317 323 330 339 347 0 43 47 37 23 351 267 275 277 304 342 359 9 340 18 94 341 332 350 355 359 358 360 2 8 17 354 357 73 70 68 92 89 80 54 43 59 72 55 3 6 31 52 42 14 359 5 40 330 305 351 330 321 321 62 34 309 352 40 225 284 290 299 323 341 4 12 0 338 343 349 349 2 3 9 17 11
79 8 343 331 326 329 329 341 343 347 4 57 93 58 42 36 33 36 256 263 293 319 345 8 340 51 90 347 336 341 334 337 344 358 7 14 21 15 31 76 50 74 98 64 44 26 22 41 66 38 43 33 17 36 58 23 332 330 24 357 288 313 309 317 312 339 23 23 339 9 193 256 278 299 313 322 10 11 352 337 330 333 342 353 2 11 19 20
40 353 342 340 336 348 355 356 357 5 21 100 201 357 38 49 50 53 44 251 247 307 341 358 4 87 28 344 340 317 315 323 342 0 9 14 18 23 36 50 28 35 55 33 29 22 11 22 49 49 29 26 17 40 69 3 268 281 319 332 313 304 262 287 292 320 11 2 323 347 309 283 296 307 308 310 4 9 333 319 309 321 347 354 8 14 15 22
13 357 353 355 355 16 25 12 2 359 5 336 293 309 322 36 48 50 46 53 74 29 20 327 11 110 285 315 316 321 319 324 356 6 9 10 359 11 28 33 39 47 42 17 10 15 20 24 38 42 4 354 356 60 135 216 210 227 256 244 281 297 282 272 269 295 2 338 313 342 313 295 305 308 306 310 343 356 323 324 319 330 358 3 10 12 8 20
7 11 12 6 18 72 53 22 1 353 346 317 293 312 340 351 21 29 26 40 70 77 107 251 335 116 307 305 324 342 346 351 15 11 7 3 349 2 17 19 32 48 50 26 335 357 59 59 38 359 305 302 289 242 214 234 212 210 213 236 266 274 287 286 276 289 358 344 294 335 317 293 291 292 289 303 334 342 327 338 335 336 359 359 4 6 3 9
38 45 52 33 101 115 67 31 21 28 25 358 326 49 116 161 67 82 335 29 42 44 69 249 226 243 297 289 339 356 2 338 9 10 6 3 1 14 4 10 41 39 7 273 292 343 55 63 12 297 263 267 292 279 225 168 128 130 182 273 295 260 274 294 295 296 15 27 284 352 339 303 295 291 287 306 330 316 312 326 323 333 349 351 0 1 357 353
60 124 117 112 143 129 66 42 45 62 59 56 80 90 128 156 101 153 162 76 18 347 20 293 5 354 300 276 357 360 28 358 355 1 3 5 19 34 8 34 60 40 338 8 13 1 42 45 326 300 262 185 63 37 43 97 112 73 47 316 320 303 286 301 299 296 12 48 280 333 340 302 300 294 287 295 288 283 294 294 304 336 351 355 3 3 3 6
77 162 144 151 155 133 64 57 65 76 68 64 73 88 113 90 85 160 113 88 51 346 17 10 45 5 347 32 0 0 47 30 355 346 357 5 21 50 75 50 59 42 1 32 67 57 53 5 323 341 26 84 64 17 33 45 62 58 352 8 321 318 344 311 315 332 329 273 265 305 309 295 311 319 303 298 295 313 331 342 352 14 12 5 15 19 19 20
117 153 147 160 162 139 71 71 82 75 64 68 74 87 108 73 81 157 87 82 40 357 42 47 118 26 5 0 351 3 78 44 19 336 356 15 21 27 78 76 66 46 13 48 74 88 101 283 307 53 28 55 57 3 35 33 360 313 239 337 310 305 282 249 286 320 327 4 308 325 327 306 334 353 322 308 359 10 9 16 21 27 25 21 28 29 28 30
115 140 154 163 167 148 83 73 79 69 54 68 84 93 110 83 295 181 101 70 7 329 359 37 100 19 354 338 351 5 137 34 78 330 357 23 12 8 56 72 76 40 329 106 66 74 46 289 342 45 18 38 57 20 29 39 356 325 255 231 268 293 285 269 294 323 358 3 330 18 16 302 316 345 310 307 10 23 26 31 29 25 26 27 28 25 24 27
104 137 153 163 169 148 90 77 47 38 21 46 95 116 152 103 13 108 111 64 16 323 352 3 21 1 349 344 344 4 98 0 338 13 14 19 7 118 67 353 45 40 219 164 62 83 9 343 48 67 37 27 38 30 3 96 35 346 272 204 252 301 298 296 326 355 20 314 301 56 83 282 314 337 318 332 28 29 27 32 31 26 26 25 22 19 19 19
92 138 148 164 173 134 43 50 8 8 14 359 289 270 257 257 340 7 77 45 5 312 352 338 337 1 354 345 346 52 78 315 318 31 18 11 356 110 69 9 23 22 292 120 39 52 343 358 23 38 42 30 23 1 286 137 55 316 239 23 320 315 298 270 86 90 255 289 319 20 97 251 298 306 336 5 42 36 25 24 22 22 23 20 19 16 14 13
119 148 153 162 177 128 47 48 24 21 3 308 291 272 251 254 284 331 83 67 335 322 34 307 329 358 345 351 13 66 101 312 18 2 348 10 10 29 66 46 133 43 337 93 67 316 8 10 4 4 20 25 2 318 265 148 70 271 273 345 319 297 265 166 118 124 279 15 330 322 34 307 280 288 357 17 42 31 19 15 7 12 16 15 15 9 9 8
157 153 145 128 148 109 51 45 37 26 339 306 314 274 226 248 332 51 75 97 312 336 155 317 347 348 345 2 18 37 5 2 59 326 336 15 13 23 80 146 141 130 337 78 105 256 325 32 211 109 41 359 303 290 227 150 251 283 302 338 30 85 66 92 93 98 43 25 295 280 348 18 287 314 353 12 40 14 356 358 350 359 8 10 11 4 3 1
149 139 125 108 121 108 36 32 29 26 20 67 83 95 147 49 52 61 47 149 333 318 259 22 1 340 5 14 356 1 20 4 333 331 346 15 359 17 91 175 104 105 346 35 68 322 300 263 202 118 64 278 289 301 192 176 259 316 344 339 14 44 41 55 55 85 54 351 274 252 259 68 290 312 2 7 20 314 305 335 342 356 5 5 6 1 358 357
131 128 122 109 96 40 340 13 24 40 78 97 88 59 57 25 59 88 76 266 311 329 4 21 350 12 31 38 351 349 11 338 334 9 10 358 3 16 39 17 34 49 5 8 17 359 1 11 324 287 289 327 338 326 326 221 288 354 14 347 354 356 8 22 355 35 54 301 272 244 221 116 250 243 132 164 257 255 272 346 355 360 3 1 359 357 356 353
120 118 111 86 67 37 31 35 32 70 84 75 37 44 72 35 30 95 273 319 337 341 19 346 323 9 13 26 8 336 337 342 353 44 31 10 32 31 38 32 346 8 12 357 349 356 3 316 309 313 326 42 4 340 346 353 359 16 19 16 19 354 355 2 335 359 232 267 266 216 273 268 227 201 157 176 217 249 280 351 356 357 357 357 357 353 352 349
105 102 89 63 51 34 42 116 134 99 70 24 37 48 76 76 38 233 271 329 352 337 22 313 313 344 343 6 6 329 338 356 353 35 56 69 59 38 35 36 22 23 14 347 352 0 337 313 340 358 338 46 57 25 343 329 360 10 10 33 39 23 357 331 305 323 297 279 273 159 291 282 260 153 166 175 186 209 303 348 344 353 353 352 354 351 350 350
95 90 77 59 47 29 15 191 168 137 100 64 64 52 64 81 185 222 298 282 285 340 27 351 319 341 30 36 344 324 12 353 348 20 11 25 45 14 355 6 13 38 67 37 23 10 357 324 341 9 331 0 49 58 259 251 357 341 199 106 72 85 18 282 261 285 299 297 302 329 298 257 279 148 165 166 169 177 354 335 330 355 354 345 351 353 350 348
91 77 60 44 32 22 20 174 167 164 147 77 63 61 76 110 242 164 304 274 292 334 322 314 2 22 15 346 327 350 19 312 348 39 22 26 56 14 353 344 353 18 61 46 338 355 29 278 275 297 277 7 25 289 182 103 12 281 158 83 23 224 172 210 230 229 271 304 301 301 265 217 333 66 165 166 178 161 357 342 347 359 357 352 354 353 348 344
80 63 47 33 23 17 17 64 171 138 123 90 68 58 103 179 243 151 220 290 321 314 318 340 31 40 348 320 338 351 344 292 351 41 33 37 128 18 8 279 324 13 70 92 332 353 32 288 298 338 322 138 122 270 299 59 341 325 43 359 278 193 146 168 279 275 17 303 277 296 289 276 38 290 225 234 333 353 0 358 358 357 357 358 355 351 345 339
72 63 45 25 15 10 17 47 154 137 98 81 82 84 179 178 163 196 237 336 304 306 44 34 20 30 343 317 324 330 340 344 1 29 27 22 74 49 22 277 298 12 16 136 176 253 94 297 310 357 326 295 179 232 332 30 86 74 11 292 260 106 103 114 280 329 357 277 269 316 291 288 299 270 314 2 354 357 358 356 357 356 356 354 347 343 338 332
63 81 54 20 8 2 28 64 98 105 85 65 74 106 176 122 205 221 209 60 286 25 64 75 23 45 100 320 312 314 341 2 0 23 34 355 26 105 57 332 310 17 321 356 89 72 107 308 298 289 292 297 323 61 349 327 15 77 265 265 55 17 312 15 348 310 318 284 283 300 284 286 278 255 349 2 353 355 352 352 356 353 350 344 336 334 330 328
31 96 46 5 2 8 42 79 73 63 70 67 71 121 160 310 265 242 217 303 119 76 63 50 340 42 94 134 287 303 343 13 350 15 52 18 16 95 84 351 307 342 328 40 117 249 113 83 290 276 284 309 356 34 344 321 336 8 7 341 28 163 225 296 316 246 288 285 290 300 291 297 248 195 351 341 337 351 345 345 351 342 334 328 326 329 327 327
30 97 18 351 357 30 69 72 65 47 62 95 147 144 72 257 258 278 270 317 65 92 74 175 167 26 344 294 256 289 351 41 320 354 21 10 3 36 60 56 299 320 334 41 82 305 6 97 267 291 320 352 354 331 312 314 321 342 7 358 342 329 241 301 290 125 23 279 289 299 291 292 224 159 205 248 315 346 340 337 340 333 328 324 323 323 320 319
48 95 338 346 352 193 73 59 54 43 75 86 114 113 64 170 256 331 312 318 75 159 129 148 140 92 149 1 352 252 316 348 262 323 332 342 25 26 23 48 293 311 344 32 42 15 348 112 236 301 341 352 286 261 203 190 18 16 13 12 342 343 43 355 303 318 67 251 275 289 289 292 240 165 215 231 315 339 343 339 335 331 328 324 319 318 315 315
58 89 323 348 27 102 74 55 27 41 91 70 47 110 51 71 82 345 330 10 46 107 82 107 111 114 165 212 311 221 270 306 266 28 308 263 23 24 351 356 320 298 35 44 337 307 124 98 120 283 284 274 277 295 69 87 99 91 64 32 17 57 85 68 281 300 324 279 274 271 283 294 260 200 248 253 315 340 346 339 333 329 328 325 323 324 324 322
74 111 350 356 32 103 69 62 340 23 72 140 13 90 9 74 99 339 354 17 6 35 36 47 100 74 175 206 271 208 243 218 217 357 241 236 323 6 331 340 318 304 33 50 320 328 38 68 16 293 285 284 289 335 75 98 105 91 49 32 54 71 116 203 222 325 315 283 319 304 280 289 281 217 283 289 317 340 343 337 333 330 329 329 328 328 326 320
108 148 12 15 24 140 86 96 127 64 94 167 41 15 338 76 92 13 359 1 7 86 56 27 210 24 47 154 127 216 306 345 251 351 46 186 249 101 69 339 326 351 44 38 323 345 336 23 39 349 337 331 330 353 15 354 44 79 70 54 73 55 357 262 62 20 305 289 335 312 276 291 317 325 316 315 328 340 338 335 333 330 328 327 324 322 318 315
70 92 332 19 39 64 98 143 138 126 142 103 60 11 350 32 71 39 110 18 31 151 109 1 287 48 46 79 34 327 336 20 316 344 29 279 263 79 54 345 334 38 45 340 322 335 299 218 96 64 350 325 324 322 315 325 345 42 96 50 30 37 33 28 17 347 293 311 316 290 270 296 313 321 320 322 334 338 335 333 330 325 321 318 317 316 313 311
71 56 324 3 30 51 71 97 95 108 141 117 71 3 24 56 332 265 143 83 42 151 73 356 333 35 37 38 24 326 315 18 20 1 24 312 285 316 359 336 12 60 20 341 351 62 95 272 150 144 231 266 260 272 292 334 333 305 0 22 2 21 41 52 85 296 304 302 292 277 292 305 314 319 320 327 339 337 333 330 324 321 318 316 315 312 309 308
91 82 68 6 9 33 41 21 37 75 133 124 97 8 18 4 319 320 125 175 165 122 55 39 41 37 18 22 27 319 308 357 23 6 6 279 277 293 301 243 68 15 344 326 349 79 81 325 258 181 230 250 256 275 294 335 323 290 355 11 343 1 44 58 36 312 305 296 288 300 310 311 312 317 323 335 340 335 328 321 318 316 313 310 308 306 306 306
76 130 182 114 71 49 42 25 46 68 62 78 112 100 28 15 5 9 297 317 16 38 32 39 29 35 36 6 31 346 332 353 0 340 342 317 315 340 353 50 70 338 346 358 345 92 111 273 239 188 252 266 272 279 289 314 270 194 40 353 345 10 17 14 336 306 302 292 292 303 310 310 310 317 331 337 333 328 320 313 312 310 307 305 306 306 306 305
82 112 333 24 90 137 154 12 58 70 56 59 83 67 73 72 40 278 268 349 1 357 41 38 352 2 31 187 88 45 346 351 335 314 323 359 342 358 5 348 304 328 42 36 344 110 131 266 235 189 282 285 278 276 280 251 199 138 42 345 347 359 355 342 313 305 302 289 290 302 308 308 314 328 332 328 325 322 316 312 312 311 311 311 310 308 306 304
138 139 133 62 74 83 27 20 50 66 44 42 68 60 117 131 52 314 238 66 7 347 26 27 328 338 57 140 110 51 255 197 250 266 219 21 334 274 164 261 280 336 19 46 320 336 22 321 284 80 327 299 285 322 332 254 185 141 28 353 351 348 350 347 325 317 311 301 304 312 311 309 321 333 323 319 320 318 313 311 313 312 311 310 309 307 306 305
102 124 135 110 67 0 9 19 50 79 36 13 80 134 228 161 155 310 263 159 132 9 17 3 320 331 50 91 86 279 250 203 222 243 219 221 267 226 179 163 160 347 359 22 346 358 22 343 342 46 352 307 321 359 342 335 119 107 5 356 359 353 345 338 336 334 325 318 319 319 315 314 323 327 321 318 318 317 314 313 314 312 310 309 307 304 305 311
97 95 110 103 76 352 5 8 22 78 69 342 147 169 271 254 250 72 85 283 141 172 194 167 100 357 9 1 351 312 245 211 224 254 228 198 208 102 79 110 109 58 349 52 26 10 46 359 336 18 339 309 333 345 329 330 63 22 312 9 10 354 337 328 337 338 326 323 322 318 316 320 323 326 324 319 319 321 317 315 314 311 310 308 304 305 314 322